Hourly Data Report for October 15, 2015

All times are specified in Local Standard Time (LST). Add 1 hour to adjust for Daylight Saving Time where and when it is observed.

PANGNIRTUNG
NUNAVUT

66°08'36.300" N
65°42'40.500" W
22.60 m
2403049
71826
WXP

Download Data

Hourly Data (October 2015)
Hourly Data Report for October 15, 2015
Temp Definition
°C
Dew Point Temp Definition
°C
Rel Hum Definition
%
Wind Dir Definition
10's deg

Wind Spd Definition
km/h
Visibility Definition
km
Stn Press Definition
kPa
Hmdx Definition


Wind Chill Definition


Weather Definition


TIME
00:00 -5.8 -6.9 92 31 6   98.96   -9 LegendNANA
01:00 -5.7 -7.7 86 33 3   98.95   -7 LegendNANA
02:00 -5.6 -6.2 95 33 6   98.95   -8 LegendNANA
03:00 -5.8 -6.2 97 22 2   98.93   -7 LegendNANA
04:00 -5.5 -6.1 95 10 2   98.94   -6 LegendNANA
05:00 -4.6 -5.8 91 27 15   98.96   -10 LegendNANA
06:00 -4.5 -6.0 90 24 15   99.00   -10 LegendNANA
07:00 -4.9 -6.0 92 24 10   99.04   -9 LegendNANA
08:00 -4.7 -6.2 89 22 8   99.09   -8 LegendNANA
09:00 -4.5 -6.4 87 19 5   99.14   -7 LegendNANA
10:00 -4.1 -6.3 85 25 1   99.19   -5 LegendNANA
11:00 -3.9 -6.0 85 22 3   99.22   -5 LegendNANA
12:00 -3.8 -4.9 92 26 2   99.26   -5 LegendNANA
13:00 -3.6 -4.8 91 9 1   99.31   -4 LegendNANA
14:00 -3.5 -5.3 87 24 21   99.38   -10 LegendNANA
15:00 -3.7 -6.0 84 24 20   99.45   -10 LegendNANA
16:00 -3.7 -6.0 84 24 19   99.50   -10 LegendNANA
17:00 -3.7 -5.8 86 24 17   99.58   -9 LegendNANA
18:00 -3.8 -5.8 86 24 15   99.67   -9 LegendNANA
19:00 -4.3 -7.0 82 26 16   99.72   -10 LegendNANA
20:00 -3.7 -6.9 78 25 17   99.75   -9 LegendNANA
21:00 -4.1 -7.5 77 24 25   99.73   -11 LegendNANA
22:00 -4.1 -8.2 73 27 12   99.76   -9 LegendNANA
23:00 -4.6 -7.8 78 27 17   99.77   -10 LegendNANA

Notes on Data Quality.

Legend

  • E = Estimated
  • M = Missing
  • NA = Not Available
  • ‡ = Partner data that is not subject to review by the National Climate Archives
Date modified: